Location: ??
(35.5052°N, 139.7262°E)
Time: 18:26:30
(UTC+00:00)

AQUA - Pass Details

Date: 20 June 2021
Orbit: 701 x 704 km, 98.2° (Epoch: 30 July)

Event Time Altitude Azimuth Distance (km) Brightness Sun altitude
Rises 16:37:44 0° 11° (N) 3,097 8.3 -25.1°
Reaches altitude 10° 16:40:00 10° 10° (N) 2,175 7.3 -24.9°
Maximum altitude 16:44:46 81° 284° (WNW) 716 3.7 -24.4°
Enters shadow 16:45:02 77° 238° (WSW) 725 3.6 -24.3°
